EW8832 Weather Reports


Display with metric or nautical units.
time (UTC)temp
F
wind
direction
speed
MPH
gust
MPH
rain 1hr
in
rain 24hr
in
rain mn
in
humidity
%
barometer
mb
20260904054050 78 150 0.0 0.0 0.00 0.00 0.00 69 1010.6
20260904053545 78 150 0.0 0.0 0.00 0.00 0.00 69 1010.6
20260904052544 78 150 0.0 0.0 0.00 0.00 0.00 68 1010.5
20260904052044 79 150 0.0 2.0 0.00 0.00 0.00 68 1010.5
20260904051557 79 150 0.0 2.0 0.00 0.00 0.00 67 1010.4
20260904051042 79 150 1.0 2.0 0.00 0.00 0.00 67 1010.4
20260904050542 79 150 1.0 3.0 0.00 0.00 0.00 67 1010.5
20260904050041 79 150 1.0 3.0 0.00 0.00 0.00 67 1010.5
20260904045541 79 150 2.0 3.0 0.00 0.00 0.00 66 1010.5
20260904045042 79 150 1.0 3.0 0.00 0.00 0.00 66 1010.5
20260904044541 80 151 1.0 2.0 0.00 0.00 0.00 65 1010.5
20260904044040 80 152 0.0 1.0 0.00 0.00 0.00 65 1010.5
20260904043540 80 152 0.0 1.0 0.00 0.00 0.00 64 1010.4
20260904042541 81 134 0.0 0.0 0.00 0.00 0.00 64 1010.4
20260904042041 81 134 0.0 2.0 0.00 0.00 0.00 63 1010.5
20260904041543 81 134 0.0 2.0 0.00 0.00 0.00 63 1010.4
20260904041040 81 134 1.0 2.0 0.00 0.00 0.00 63 1010.4
20260904040545 81 134 1.0 2.0 0.00 0.00 0.00 64 1010.4
20260904040045 81 134 1.0 2.0 0.00 0.00 0.00 64 1010.3
20260904035541 81 134 1.0 3.0 0.00 0.00 0.00 64 1010.2
20260904035041 81 134 1.0 4.0 0.00 0.00 0.00 63 1010.2
20260904034540 81 134 2.0 4.0 0.00 0.00 0.00 63 1010.2
20260904034043 81 134 2.0 4.0 0.00 0.00 0.00 62 1010.2
20260904033541 82 138 2.0 4.0 0.00 0.00 0.00 62 1010.2
20260904032539 82 154 3.0 6.0 0.00 0.00 0.00 61 1010.3
20260904032039 82 157 3.0 5.0 0.00 0.00 0.00 61 1010.3
20260904031540 82 157 4.0 5.0 0.00 0.00 0.00 60 1010.3
20260904031039 82 157 4.0 5.0 0.00 0.00 0.00 60 1010.2
20260904030540 82 157 2.0 3.0 0.00 0.00 0.00 59 1010.2
20260904030039 83 155 1.0 3.0 0.00 0.00 0.00 59 1010.2
20260904025539 83 155 2.0 3.0 0.00 0.00 0.00 59 1010.1
20260904025040 83 155 2.0 3.0 0.00 0.00 0.00 59 1010.1
20260904024539 83 155 2.0 5.0 0.00 0.00 0.00 58 1010.1
20260904024040 83 155 2.0 5.0 0.00 0.00 0.00 58 1010.0
20260904023538 84 155 2.0 4.0 0.00 0.00 0.00 57 1009.9
20260904022539 84 155 2.0 5.0 0.00 0.00 0.00 56 1009.7
20260904022040 84 155 2.0 5.0 0.00 0.00 0.00 55 1009.7
20260904021539 85 155 2.0 5.0 0.00 0.00 0.00 55 1009.6
20260904021041 85 155 2.0 5.0 0.00 0.00 0.00 54 1009.6
20260904020539 85 155 2.0 6.0 0.00 0.00 0.00 54 1009.4
20260904020038 86 155 3.0 6.0 0.00 0.00 0.00 53 1009.3
20260904015537 86 163 4.0 6.0 0.00 0.00 0.00 53 1009.3
20260904015037 86 155 2.0 6.0 0.00 0.00 0.00 53 1009.2
20260904014544 86 154 3.0 6.0 0.00 0.00 0.00 52 1009.2
20260904014040 86 154 3.0 6.0 0.00 0.00 0.00 52 1009.1
20260904013541 86 158 3.0 6.0 0.00 0.00 0.00 52 1009.1
20260904012536 87 164 3.0 5.0 0.00 0.00 0.00 51 1008.8
20260904012035 87 164 3.0 4.0 0.00 0.00 0.00 51 1008.7
20260904011538 88 164 3.0 5.0 0.00 0.00 0.00 50 1008.7
20260904011035 88 164 3.0 5.0 0.00 0.00 0.00 49 1008.7
20260904010538 89 164 3.0 5.0 0.00 0.00 0.00 48 1008.6
20260904010045 90 164 4.0 6.0 0.00 0.00 0.00 47 1008.6
20260904005537 90 164 3.0 6.0 0.00 0.00 0.00 47 1008.5
20260904005035 90 169 3.0 7.0 0.00 0.00 0.00 46 1008.5
20260904004535 91 163 5.0 10.0 0.00 0.00 0.00 45 1008.5
20260904004035 91 155 5.0 10.0 0.00 0.00 0.00 45 1008.4
20260904003534 92 146 7.0 14.0 0.00 0.00 0.00 44 1008.5
20260904002535 92 165 8.0 14.0 0.00 0.00 0.00 44 1008.4
20260904002038 93 150 9.0 14.0 0.00 0.00 0.00 43 1008.4
20260904001540 93 168 9.0 14.0 0.00 0.00 0.00 43 1008.4
20260904001035 93 165 6.0 11.0 0.00 0.00 0.00 43 1008.4
20260904000534 94 169 5.0 11.0 0.00 0.00 0.00 43 1008.4
20260904000044 94 167 6.0 15.0 0.00 0.00 0.00 42 1008.4
20260903235538 94 138 7.0 15.0 0.00 0.00 0.00 42 1008.4
20260903235034 95 156 6.0 11.0 0.00 0.00 0.00 42 1008.4
20260903234534 95 170 4.0 8.0 0.00 0.00 0.00 42 1008.4
20260903234037 95 221 3.0 8.0 0.00 0.00 0.00 41 1008.4
20260903233536 95 161 4.0 9.0 0.00 0.00 0.00 41 1008.3
20260903232534 95 224 4.0 14.0 0.00 0.00 0.00 42 1008.3
20260903232034 95 198 5.0 13.0 0.00 0.00 0.00 41 1008.3
20260903231534 95 187 7.0 12.0 0.00 0.00 0.00 41 1008.3
20260903231034 95 161 8.0 12.0 0.00 0.00 0.00 41 1008.2
20260903230534 95 165 7.0 14.0 0.00 0.00 0.00 41 1008.2
20260903230033 95 136 9.0 13.0 0.00 0.00 0.00 41 1008.3
20260903225535 96 177 7.0 10.0 0.00 0.00 0.00 41 1008.2
20260903225035 96 163 8.0 15.0 0.00 0.00 0.00 41 1008.2
20260903224533 96 139 8.0 15.0 0.00 0.00 0.00 40 1008.2
20260903224035 96 180 7.0 15.0 0.00 0.00 0.00 40 1008.1
20260903223532 96 168 5.0 11.0 0.00 0.00 0.00 40 1008.2
20260903222533 96 134 8.0 16.0 0.00 0.00 0.00 40 1008.1
20260903222035 96 155 6.0 14.0 0.00 0.00 0.00 40 1008.1
20260903221532 96 163 8.0 18.0 0.00 0.00 0.00 40 1008.1
20260903221031 96 176 12.0 18.0 0.00 0.00 0.00 39 1008.2
20260903220530 96 150 7.0 17.0 0.00 0.00 0.00 40 1008.2
20260903220031 96 167 10.0 15.0 0.00 0.00 0.00 40 1008.2
20260903215530 96 177 7.0 14.0 0.00 0.00 0.00 40 1008.3
20260903215030 96 208 5.0 12.0 0.00 0.00 0.00 41 1008.3
20260903214530 96 182 6.0 14.0 0.00 0.00 0.00 40 1008.3
20260903214030 97 191 9.0 14.0 0.00 0.00 0.00 40 1008.4
20260903213530 96 233 9.0 16.0 0.00 0.00 0.00 41 1008.4
20260903212529 95 149 9.0 19.0 0.00 0.00 0.00 42 1008.7
20260903212030 96 148 13.0 19.0 0.00 0.00 0.00 41 1008.7
20260903211628 96 196 5.0 13.0 0.00 0.00 0.00 41 1008.5
20260903211027 97 157 8.0 13.0 0.00 0.00 0.00 40 1008.7
20260903210528 97 169 8.0 16.0 0.00 0.00 0.00 40 1008.7
20260903210027 97 196 9.0 16.0 0.00 0.00 0.00 40 1008.8
20260903205525 97 181 6.0 17.0 0.00 0.00 0.00 41 1008.8
20260903205025 97 214 7.0 17.0 0.00 0.00 0.00 41 1008.8
20260903204530 97 211 6.0 15.0 0.00 0.00 0.00 40 1008.8
20260903204125 97 211 9.0 15.0 0.00 0.00 0.00 40 1008.9
20260903203524 97 167 9.0 13.0 0.00 0.00 0.00 40 1009.0
20260903202523 97 184 9.0 17.0 0.00 0.00 0.00 40 1009.0
20260903202027 97 223 8.0 12.0 0.00 0.00 0.00 40 1009.1
20260903201522 97 219 5.0 16.0 0.00 0.00 0.00 41 1009.1
20260903201022 96 270 4.0 16.0 0.00 0.00 0.00 41 1009.1
20260903200521 97 162 5.0 14.0 0.00 0.00 0.00 41 1009.2
20260903200019 96 230 5.0 21.0 0.00 0.00 0.00 42 1009.2
20260903195519 96 146 11.0 21.0 0.00 0.00 0.00 42 1009.2
20260903195020 96 224 4.0 14.0 0.00 0.00 0.00 42 1009.2
20260903194515 96 186 5.0 17.0 0.00 0.00 0.00 42 1009.3
20260903194014 95 261 6.0 17.0 0.00 0.00 0.00 41 1009.4
20260903193514 96 214 6.0 15.0 0.00 0.00 0.00 42 1009.4
20260903192512 95 297 6.0 15.0 0.00 0.00 0.00 42 1009.6
20260903192015 95 151 7.0 20.0 0.00 0.00 0.00 42 1009.6
20260903191512 95 184 9.0 20.0 0.00 0.00 0.00 42 1009.7
20260903191012 95 183 8.0 18.0 0.00 0.00 0.00 41 1009.7
20260903190513 95 157 11.0 17.0 0.00 0.00 0.00 41 1009.8
20260903190012 95 246 6.0 15.0 0.00 0.00 0.00 42 1009.9
20260903185509 95 159 9.0 18.0 0.00 0.00 0.00 42 1009.9
20260903185009 95 194 5.0 18.0 0.00 0.00 0.00 42 1010.0
20260903184509 95 177 11.0 19.0 0.00 0.00 0.00 41 1009.8
20260903184008 95 225 4.0 16.0 0.00 0.00 0.00 42 1010.1
20260903183509 95 232 8.0 16.0 0.00 0.00 0.00 42 1010.1
20260903182506 95 179 7.0 17.0 0.00 0.00 0.00 43 1010.3
20260903182005 94 179 7.0 17.0 0.00 0.00 0.00 44 1010.3
20260903181503 94 190 7.0 14.0 0.00 0.00 0.00 44 1010.5
20260903181002 93 194 6.0 17.0 0.00 0.00 0.00 44 1010.5
20260903180502 93 165 8.0 16.0 0.00 0.00 0.00 45 1010.6
20260903180003 93 175 10.0 18.0 0.00 0.00 0.00 44 1010.6
20260903175602 94 166 11.0 17.0 0.00 0.00 0.00 43 1010.7
20260903175059 93 205 10.0 17.0 0.00 0.00 0.00 45 1010.8
20260903174558 93 165 9.0 19.0 0.00 0.00 0.00 45 1010.9
20260903174058 93 195 8.0 21.0 0.00 0.00 0.00 45 1011.0
20260903173556 93 158 12.0 21.0 0.00 0.00 0.00 45 1011.1
20260903173159 92 147 10.0 18.0 0.00 0.00 0.00 47 1011.2
20260903172556 92 159 10.0 18.0 0.00 0.00 0.00 47 1011.2
20260903172056 92 244 7.0 16.0 0.00 0.00 0.00 47 1011.4
20260903171558 92 200 8.0 17.0 0.00 0.00 0.00 47 1011.4
20260903171057 92 167 10.0 18.0 0.00 0.00 0.00 47 1011.5
20260903170555 92 209 9.0 18.0 0.00 0.00 0.00 49 1011.5
20260903170055 91 130 9.0 18.0 0.00 0.00 0.00 48 1011.5
20260903165553 91 172 10.0 18.0 0.00 0.00 0.00 49 1011.5
20260903165052 90 159 8.0 13.0 0.00 0.00 0.00 50 1011.6
20260903164552 90 138 6.0 13.0 0.00 0.00 0.00 51 1011.7
20260903164051 90 224 4.0 11.0 0.00 0.00 0.00 51 1011.7
20260903163550 90 200 4.0 10.0 0.00 0.00 0.00 51 1011.7
20260903163150 90 219 7.0 17.0 0.00 0.00 0.00 52 1011.8
20260903162550 90 144 8.0 17.0 0.00 0.00 0.00 52 1011.8
20260903162049 90 157 7.0 14.0 0.00 0.00 0.00 52 1011.7
20260903161548 89 200 6.0 12.0 0.00 0.00 0.00 53 1011.8
20260903161048 89 215 6.0 12.0 0.00 0.00 0.00 52 1011.8
20260903160548 89 158 6.0 13.0 0.00 0.00 0.00 52 1011.9
20260903155548 89 242 8.0 11.0 0.00 0.00 0.00 53 1011.9
20260903155046 88 198 3.0 14.0 0.00 0.00 0.00 54 1011.9
20260903154544 88 178 4.0 14.0 0.00 0.00 0.00 55 1011.9
20260903154044 87 186 9.0 14.0 0.00 0.00 0.00 55 1011.9
20260903153544 87 208 6.0 15.0 0.00 0.00 0.00 55 1012.0
20260903153143 87 154 8.0 13.0 0.00 0.00 0.00 56 1011.9
20260903152542 86 175 7.0 14.0 0.00 0.00 0.00 56 1011.9
20260903152041 86 210 8.0 12.0 0.00 0.00 0.00 57 1012.0
20260903151541 86 219 6.0 16.0 0.00 0.00 0.00 57 1012.1
20260903151041 86 160 8.0 16.0 0.00 0.00 0.00 57 1012.0
20260903150540 86 205 4.0 12.0 0.00 0.00 0.00 59 1012.2
20260903150039 85 162 7.0 12.0 0.00 0.00 0.00 59 1012.2
20260903145539 85 197 7.0 12.0 0.00 0.00 0.00 60 1012.3
20260903145036 85 184 6.0 15.0 0.00 0.00 0.00 61 1012.3
20260903144536 84 184 9.0 15.0 0.00 0.00 0.00 61 1012.3
20260903144038 84 176 7.0 14.0 0.00 0.00 0.00 61 1012.3
20260903143537 84 194 6.0 10.0 0.00 0.00 0.00 61 1012.4
20260903143133 83 178 7.0 14.0 0.00 0.00 0.00 63 1012.5
20260903142537 83 182 4.0 12.0 0.00 0.00 0.00 63 1012.4
20260903142035 83 159 6.0 13.0 0.00 0.00 0.00 64 1012.4
20260903141532 83 218 4.0 14.0 0.00 0.00 0.00 65 1012.4
20260903141031 82 134 7.0 14.0 0.00 0.00 0.00 65 1012.4
20260903140531 82 180 4.0 10.0 0.00 0.00 0.00 67 1012.5
20260903140029 82 153 7.0 11.0 0.00 0.00 0.00 68 1012.5
20260903135527 81 159 8.0 11.0 0.00 0.00 0.00 68 1012.6
20260903135026 81 166 5.0 10.0 0.00 0.00 0.00 69 1012.6
20260903134525 81 176 4.0 9.0 0.00 0.00 0.00 70 1012.6
20260903134023 80 174 6.0 10.0 0.00 0.00 0.00 71 1012.6
20260903133524 80 183 4.0 9.0 0.00 0.00 0.00 72 1012.7
20260903133123 79 164 5.0 7.0 0.00 0.00 0.00 73 1012.6
20260903132522 79 173 5.0 8.0 0.00 0.00 0.00 73 1012.6
20260903132021 79 170 3.0 6.0 0.00 0.00 0.00 75 1012.5
20260903131521 78 198 1.0 5.0 0.00 0.00 0.00 76 1012.5
20260903131021 78 169 0.0 0.0 0.00 0.00 0.00 78 1012.5
20260903130520 77 169 0.0 0.0 0.00 0.00 0.00 79 1012.5
20260903130020 76 169 0.0 0.0 0.00 0.00 0.00 81 1012.6
20260903125520 76 169 0.0 0.0 0.00 0.00 0.00 81 1012.6
20260903125019 75 169 0.0 0.0 0.00 0.00 0.00 82 1012.5
20260903124518 75 169 0.0 0.0 0.00 0.00 0.00 82 1012.5
20260903124018 74 169 0.0 0.0 0.00 0.00 0.00 83 1012.5
20260903123521 74 169 0.0 0.0 0.00 0.00 0.00 84 1012.5
20260903123118 73 169 0.0 0.0 0.00 0.00 0.00 85 1012.3
20260903122519 73 169 0.0 0.0 0.00 0.00 0.00 85 1012.4
20260903122017 73 169 0.0 0.0 0.00 0.00 0.00 86 1012.3
20260903121516 72 169 0.0 0.0 0.00 0.00 0.00 86 1012.2
20260903121015 72 169 0.0 0.0 0.00 0.00 0.00 87 1012.1
20260903120516 72 169 0.0 0.0 0.00 0.00 0.00 87 1012.1
20260903120016 72 169 0.0 0.0 0.00 0.00 0.00 87 1012.1
20260903115514 71 169 0.0 0.0 0.00 0.00 0.00 87 1012.0
20260903115014 71 169 0.0 0.0 0.00 0.00 0.00 87 1012.0
20260903114514 71 169 0.0 0.0 0.00 0.00 0.00 86 1012.0
20260903114012 72 169 0.0 0.0 0.00 0.00 0.00 85 1011.9
20260903113511 72 169 0.0 0.0 0.00 0.00 0.00 84 1011.9
20260903113111 73 169 0.0 0.0 0.00 0.00 0.00 84 1011.8
20260903112512 73 169 0.0 0.0 0.00 0.00 0.00 84 1011.8
20260903112011 73 169 0.0 0.0 0.00 0.00 0.00 84 1011.9
20260903111510 73 169 0.0 0.0 0.00 0.00 0.00 84 1011.9
20260903111009 73 169 0.0 0.0 0.00 0.00 0.00 83 1011.9
20260903110509 74 169 0.0 0.0 0.00 0.00 0.00 82 1011.8
20260903110007 74 169 0.0 0.0 0.00 0.00 0.00 82 1011.8
20260903105507 74 169 0.0 0.0 0.00 0.00 0.00 82 1011.8
20260903105008 74 169 0.0 0.0 0.00 0.00 0.00 82 1011.8
20260903104506 74 169 0.0 0.0 0.00 0.00 0.00 82 1011.7
20260903104005 74 169 0.0 0.0 0.00 0.00 0.00 83 1011.7
20260903103505 74 169 0.0 0.0 0.00 0.00 0.00 82 1011.7
20260903103106 74 169 0.0 0.0 0.00 0.00 0.00 82 1011.6
20260903102508 74 169 0.0 0.0 0.00 0.00 0.00 82 1011.6
20260903102008 74 169 0.0 0.0 0.00 0.00 0.00 82 1011.6
20260903101504 74 169 0.0 2.0 0.00 0.00 0.00 82 1011.5
20260903101003 74 169 0.0 2.0 0.00 0.00 0.00 82 1011.5
20260903100503 74 169 0.0 0.0 0.00 0.00 0.00 82 1011.6
20260903100005 74 169 0.0 0.0 0.00 0.00 0.00 81 1011.5
20260903095505 74 169 0.0 1.0 0.00 0.00 0.00 81 1011.5
20260903095001 74 169 0.0 1.0 0.00 0.00 0.00 81 1011.5
20260903094501 74 169 0.0 3.0 0.00 0.00 0.00 81 1011.5
20260903094001 74 169 0.0 3.0 0.00 0.00 0.00 81 1011.4
20260903093501 74 169 2.0 4.0 0.00 0.00 0.00 80 1011.4
20260903093135 75 169 0.0 1.0 0.00 0.00 0.00 79 1011.5
20260903092501 75 169 0.0 0.0 0.00 0.00 0.00 79 1011.4
20260903092100 75 169 0.0 0.0 0.00 0.00 0.00 79 1011.4
20260903091601 75 169 0.0 0.0 0.00 0.00 0.00 79 1011.4
20260903091059 75 169 0.0 0.0 0.00 0.00 0.00 78 1011.4
20260903090557 75 169 0.0 0.0 0.00 0.00 0.00 77 1011.5
20260903090059 76 169 0.0 0.0 0.00 0.00 0.00 77 1011.4
20260903085555 76 169 0.0 0.0 0.00 0.00 0.00 76 1011.4
20260903085054 76 169 0.0 0.0 0.00 0.00 0.00 75 1011.4
20260903084554 77 169 0.0 0.0 0.00 0.00 0.00 75 1011.3
20260903084054 77 169 0.0 0.0 0.00 0.00 0.00 75 1011.3
20260903083553 77 169 0.0 0.0 0.00 0.00 0.00 75 1011.3
20260903083054 77 169 0.0 0.0 0.00 0.00 0.00 75 1011.4
20260903082554 77 169 0.0 0.0 0.00 0.00 0.00 74 1011.3
20260903082051 77 169 0.0 0.0 0.00 0.00 0.00 74 1011.3
20260903081551 77 169 0.0 0.0 0.00 0.00 0.00 74 1011.2
20260903081051 77 169 0.0 1.0 0.00 0.00 0.00 74 1011.2
20260903080553 77 169 0.0 1.0 0.00 0.00 0.00 74 1011.2
20260903080103 77 169 0.0 2.0 0.00 0.00 0.00 73 1011.1
20260903075550 77 169 0.0 3.0 0.00 0.00 0.00 73 1011.2
20260903075050 78 168 0.0 3.0 0.00 0.00 0.00 72 1011.2
20260903074602 78 169 1.0 5.0 0.00 0.00 0.00 72 1011.1
20260903074050 78 167 2.0 6.0 0.00 0.00 0.00 72 1011.2
20260903073549 78 165 3.0 6.0 0.00 0.00 0.00 73 1011.2
20260903073059 78 161 2.0 6.0 0.00 0.00 0.00 73 1011.2
20260903072547 78 181 1.0 4.0 0.00 0.00 0.00 72 1011.3
20260903072046 78 180 0.0 3.0 0.00 0.00 0.00 71 1011.2
20260903071548 78 180 0.0 3.0 0.00 0.00 0.00 71 1011.2
20260903071045 78 180 1.0 3.0 0.00 0.00 0.00 70 1011.2
20260903070547 79 180 0.0 5.0 0.00 0.00 0.00 70 1011.1
20260903070046 79 175 1.0 3.0 0.00 0.00 0.00 70 1011.2
20260903065547 79 175 1.0 3.0 0.00 0.00 0.00 70 1011.2
20260903065046 78 172 1.0 3.0 0.00 0.00 0.00 71 1011.2
20260903064546 78 170 0.0 3.0 0.00 0.00 0.00 71 1011.2
20260903064046 78 153 0.0 5.0 0.00 0.00 0.00 71 1011.2
20260903063545 78 153 1.0 6.0 0.00 0.00 0.00 71 1011.2
20260903063045 78 153 2.0 5.0 0.00 0.00 0.00 71 1011.2
20260903062545 78 153 3.0 5.0 0.00 0.00 0.00 71 1011.1
20260903062045 78 153 3.0 5.0 0.00 0.00 0.00 71 1011.2
20260903061547 78 152 2.0 5.0 0.00 0.00 0.00 70 1011.1
20260903061044 78 152 2.0 5.0 0.00 0.00 0.00 70 1011.1
20260903060545 78 152 2.0 5.0 0.00 0.00 0.00 70 1011.2
20260903060044 78 152 2.0 3.0 0.00 0.00 0.00 71 1011.0
20260903055544 78 152 2.0 3.0 0.00 0.00 0.00 71 1011.0
20260903055043 78 152 1.0 3.0 0.00 0.00 0.00 70 1011.1
20260903054542 78 152 1.0 3.0 0.00 0.00 0.00 70 1011.0